Location: Beang
(6.6177°N, 10.9863°W)
Time: 23:27:44
(UTC+00:00)

CZ-2C R/B - Pass Details

Date: 07 June 2020
Orbit: 668 x 784 km, 98.2° (Epoch: 10 July)

Event Time Altitude Azimuth Distance (km) Brightness Sun altitude
Rises 04:15:59 0° 17° (NNE) 3,248 6.4 -30.2°
Reaches altitude 10° 04:18:20 10° 21° (NNE) 2,313 5.6 -29.7°
Maximum altitude 04:23:23 62° 101° (ESE) 851 2.8 -28.6°
Enters shadow 04:23:37 62° 116° (ESE) 855 2.7 -28.6°
